Regional Weather Roundup
Issued by NWS

Home | Current Version | Previous Version | Text Only | Print | Product List | Glossary Off
Versions: 1 2 3 4 5 6 7 8 9 10 11 12 13 14 15 16 17 18 19 20 21 22 23 24 25 26 27 28 29 30 31 32 33 34 35 36 37 38 39 40 41 42 43 44 45 46 47 48 49 50

000
ASUS43 KMKX 250000
RWRWI

WISCONSIN REGIONAL WEATHER ROUNDUP
NATIONAL WEATHER SERVICE MILWAUKEE/SULLIVAN WI
700 PM CDT THU APR 24 2014

NOTE: "FAIR" INDICATES FEW OR NO CLOUDS BELOW 12,000 FEET WITH NO
SIGNIFICANT WEATHER AND/OR OBSTRUCTIONS TO VISIBILITY.

WIZ001-002-006>008-014>016-023>028-250100-
NORTHWEST WISCONSIN

CITY           SKY/WX    TMP DP  RH WIND       PRES   REMARKS
SUPERIOR ARPT  LGT SNOW  32  32 100 NE12G17   29.75S WCI  23
ASHLAND        MIX PCPN  34  34 100 NE7       29.75F FOG     WCI  28
6HR MIN TEMP:  33; 6HR MAX TEMP:  37; 6HR PCP:  0.59;

HAYWARD        LGT RAIN  36  50 100 E8        29.69F WCI  30
6HR MIN TEMP:  34; 6HR MAX TEMP:  36; 6HR PCP:  0.22;

SIREN          DRIZZLE   40  39  99 CALM      29.69S
RICE LAKE      DRIZZLE   42  40  95 SE5       29.69S
LADYSMITH      DRIZZLE   42  40  94 SE9       29.70S
EAU CLAIRE     NOT AVBL
MENOMONIE      CLOUDY    43  42  99 CALM      29.68S FOG
NEW RICHMOND   CLOUDY    42  42 100 SW3       29.68F FOG
OSCEOLA        LGT RAIN  43  43 100 S3        29.71S
$$

WIZ003>005-009-010-017-018-250100-
NORTH CENTRAL WISCONSIN

CITY           SKY/WX    TMP DP  RH WIND       PRES   REMARKS
WOODRUFF       LGT RAIN  37  35  93 SE12      29.74S WCI  29
RHINELANDER    LGT RAIN  35  34  96 SE18G26   29.75F FOG     WCI  24
6HR MIN TEMP:  32; 6HR MAX TEMP:  36; 6HR PCP:  0.19;

EAGLE RIVER    LGT SNOW  33  33 100 E12G20    29.77S WCI  25
LAND O LAKES   LGT SNOW  34  33  96 SE9G18    29.79S WCI  27
PHILLIPS       LGT RAIN  37  36  94 SE13G22   29.69F WCI  29
TOMAHAWK       DRIZZLE   37  36  93 E8G18     29.73S WCI  31
MEDFORD        LGT RAIN  39  38  97 SE16      29.69F WCI  30
MERRILL        LGT RAIN  39  38  97 SE15G21   29.73S WCI  31
$$

WIZ029-030-035-036-043>047-250100-
CENTRAL WISCONSIN

CITY           SKY/WX    TMP DP  RH WIND       PRES   REMARKS
WAUSAU         LGT RAIN  40  40 100 SE16      29.71F FOG     WCI  31
6HR MIN TEMP:  38; 6HR MAX TEMP:  41; 6HR PCP:  0.26;

MOSINEE        LGT RAIN  39  39 100 E14G22    29.74S FOG     WCI  31
MARSHFIELD     LGT RAIN  42  39  89 SE14      29.68F FOG
6HR MIN TEMP:  41; 6HR MAX TEMP:  42; 6HR PCP:  0.19;

STEVENS POINT  LGT RAIN  39  37  91 E12G18    29.74F WCI  32
WAUPACA        LGT RAIN  45  37  76 E13       29.75F
WAUTOMA        NOT AVBL
WISC RAPIDS    LGT RAIN  43  41  93 E8        29.72S FOG
6HR MIN TEMP:  42; 6HR MAX TEMP:  43; 6HR PCP:  0.29;

CAMP DOUGLAS   DRIZZLE   48  48 100 SE8       29.67F FOG
$$

WIZ011>013-019>022-031-037>040-048>050-250100-
NORTHEAST WISCONSIN

CITY           SKY/WX    TMP DP  RH WIND       PRES   REMARKS
ANTIGO         LGT RAIN  36  35  96 E20       29.78R WCI  26
STURGEON BAY   CLOUDY    41  34  75 E10G20    29.81F
6HR MIN TEMP:  37; 6HR MAX TEMP:  41; 6HR PCP:  0.07;

GREEN BAY      LGT RAIN  42  38  85 E8        29.80S
6HR MIN TEMP:  42; 6HR MAX TEMP:  44; 6HR PCP:  0.08;

MANITOWOC      NOT AVBL
APPLETON       NOT AVBL
CLINTONVILLE   RAIN      41  37  87 E12       29.77F
OSHKOSH        LGT RAIN  47  33  58 SE13      29.71F
6HR MIN TEMP:  44; 6HR MAX TEMP:  47; 6HR PCP:  0.06;

$$

WIZ032>034-041-042-053>061-250100-
SOUTHWEST WISCONSIN

CITY           SKY/WX    TMP DP  RH WIND       PRES   REMARKS
LA CROSSE      FOG       46  45  96 NW3       29.66S VSB 3/4
6HR MIN TEMP:  44; 6HR MAX TEMP:  48; 6HR PCP:  0.16;

SPARTA         DRIZZLE   45  45  98 E5        29.68S
VIROQUA        CLOUDY    49  49 100 S7        29.66S
BOSCOBEL       RAIN      52  50  93 CALM      29.68S VSB 1
6HR MIN TEMP:  50; 6HR MAX TEMP:  54; 6HR PCP:  0.28;

PRAIRIE DU CHI RAIN      51  49  92 CALM      29.68R
PLATTEVILLE    CLOUDY    51  49  92 W5        29.69R
$$

WIZ056-057-062-063-064-067-068-250100-
SOUTH CENTRAL WISCONSIN

CITY           SKY/WX    TMP DP  RH WIND       PRES   REMARKS
BARABOO/DELLS  RAIN      48  46  90 SE5       29.69S
LONE ROCK      LGT RAIN  51  49  92 E3        29.69R FOG
WATERTOWN      DRIZZLE   51  35  55 SE10      29.71S
MADISON        LGT RAIN  50  46  86 E9        29.66F
6HR MIN TEMP:  50; 6HR MAX TEMP:  57; 6HR PCP:  0.11;

MIDDLETON      CLOUDY    51  49  93 E7        29.67F
MONROE         DRIZZLE   50  50 100 E6        29.66F
JANESVILLE     CLOUDY    59  39  47 SE13G18   29.67F
$$

WIZ051-052-058>065-066-070>072-250100-
SOUTHEAST WISCONSIN

CITY           SKY/WX    TMP DP  RH WIND       PRES   REMARKS
MILWAUKEE      LGT RAIN  46  33  60 SE12      29.77S
6HR MIN TEMP:  46; 6HR MAX TEMP:  52; 6HR PCP: TRACE;

WAUKESHA       CLOUDY    50  30  46 E16       29.75F
MILWAUKEE/TIMM CLOUDY    48  30  49 SE13G18   29.77S
RACINE         LGT RAIN  47  32  56 SE15G22   29.77F
6HR MIN TEMP:  46; 6HR MAX TEMP:  53; 6HR PCP: TRACE;

BURLINGTON     CLOUDY    53  31  43 MISG      29.73R
KENOSHA        LGT RAIN  48  33  56 E13       29.74F
6HR MIN TEMP:  48; 6HR MAX TEMP:  58; 6HR PCP: TRACE;

FOND DU LAC    LGT RAIN  48  32  53 SE16G24   29.72F
6HR MIN TEMP:  45; 6HR MAX TEMP:  48; 6HR PCP:  0.11;

SHEBOYGAN      CLOUDY    49  27  42 SE15G29   29.77F
6HR MIN TEMP:  43; 6HR MAX TEMP:  49; 6HR PCP:  0.05;

WEST BEND      CLOUDY    45  30  57 E9        29.76F
JUNEAU         DRIZZLE   49  30  47 E15G21    29.72F
$$

LSZ147-162-250100-
LAKE SUPERIOR

STATION/POSITION TIME  TEMP    WIND        PRES    WAVE
                       AIR SEA DIR/SP/G            HT/PER
                 (UTC) (F)     (DEG/KT/KT) (MB)    (FT/S)
DEVILS ISLAND    2300   33      90/ 25/ 28 1009.8F
PORT WING        2300   36      70/  4/  6 1007.5F
SAXON HARBOR     2300           CALM  /  5 1007.8F
$$

LMZ867-665-643>646-250100-
LAKE MICHIGAN

STATION/POSITION TIME  TEMP    WIND        PRES    WAVE
                       AIR SEA DIR/SP/G            HT/PER
                 (UTC) (F)     (DEG/KT/KT) (MB)    (FT/S)
NORTHPORT PIER   2320   38      90/ 13/ 17 1011.9F
SISTER BAY       2323   40     100/ 13/ 22   N/A
KEWAUNEE LAKESHO 2300   39      80/ 12/ 17 1010.5F
SHEBOYGAN LAKESH 2300   44     110/ 18/ 19 1009.1F
PORT WASHINGTON  2300   42     100/ 10/ 14 1009.1F
MILWAUKEE LAKESH 2300   43     170/  4/  6   N/A
KENOSHA   LAKESH 2300   44     110/ 18/ 20   N/A
$$

TC  - TEMPERATURE IN CELSIUS
VSB - VISIBILITY IN STATUTE MILES
WCI - WIND CHILL INDEX
HX  - HEAT INDEX




USA.gov is the U.S. government's official web portal to all federal, state and local government web resources and services.